sat.trackr.live / text

‹ back to catalog

STARLINK-2435

NORAD 47843 · 2021-018BJ

PAYLOAD ACTIVE UNKNOWN

§ Identity

Operator
Country
US
Launch date
2021-03-11
Launch site
AFETR
Launch vehicle
Mass (kg)
RCS (m²)

Purposes: comms

External: N2YO · Heavens-Above · Gunter

§ Orbital elements

Epoch: 2026-09-09T20:45:46.171008Z

Period
94.02 min
Inclination
53.1592°
Eccentricity
0.0001738
Mean motion
15.31662138 rev/d
Perigee alt
469.7 km
Apogee alt
472.0 km
Semi-major
6,849.0 km
B*
3.9953e-4
RAAN
118.1965°
Arg perigee
107.2968°
Mean anomaly
252.8224°
Rev number
30,478

§ Raw data

STARLINK-24351 47843U 21018BJ  26252.86511772  .00012038  00000+0  39953-3 0  99972 47843  53.1592 118.1965 0001738 107.2968 252.8224 15.31662138304789

JSON: /api/v1/satellites/47843 · /tle

For live sub-satellite position, see the globe view (requires WebGL).

§ Visibility from observer

Set your observer location to see the next 7 days of passes ≥ 10°. The values pass through the URL so the page stays shareable.

No JS? Fill the form by hand. The geolocation button needs JavaScript.